Time,TemperatureF,DewpointF,PressureIn,WindDirection,WindDirectionDegrees,WindSpeedMPH,WindSpeedGustMPH,Humidity,HourlyPrecipIn,Conditions,Clouds,dailyrainin,SoftwareType,DateUTC
2013-04-15 00:03:00,48.0,27.0,30.20,ESE,109,1.0,7.0,44,0.00,,,0.00,,2013-04-15 04:03:00,
2013-04-15 00:13:00,48.0,27.0,30.20,ESE,109,1.0,7.0,44,0.00,,,0.00,,2013-04-15 04:13:00,
2013-04-15 00:23:00,48.0,27.0,30.20,ESE,121,4.0,8.0,44,0.00,,,0.00,,2013-04-15 04:23:00,
2013-04-15 00:33:00,47.0,27.0,30.21,ESE,102,0.0,5.0,45,0.00,,,0.00,,2013-04-15 04:33:00,
2013-04-15 00:43:00,47.0,27.0,30.21,ESE,102,0.0,5.0,45,0.00,,,0.00,,2013-04-15 04:43:00,
2013-04-15 00:52:00,47.0,26.0,30.22,ENE,77,1.0,5.0,44,0.00,,,0.00,,2013-04-15 04:52:00,
2013-04-15 01:03:00,47.0,26.0,30.22,SSE,150,3.0,7.0,44,0.00,,,0.00,,2013-04-15 05:03:00,
2013-04-15 01:13:00,47.0,26.0,30.22,SSE,150,3.0,7.0,44,0.00,,,0.00,,2013-04-15 05:13:00,
2013-04-15 01:23:00,47.0,27.0,30.22,North,4,0.0,9.0,45,0.00,,,0.00,,2013-04-15 05:23:00,
2013-04-15 01:33:00,46.0,26.0,30.22,SE,127,1.0,4.0,46,0.00,,,0.00,,2013-04-15 05:33:00,
2013-04-15 01:42:00,46.0,26.0,30.22,SE,127,1.0,4.0,46,0.00,,,0.00,,2013-04-15 05:42:00,
2013-04-15 01:52:00,46.0,27.0,30.22,SE,125,0.0,7.0,47,0.00,,,0.00,,2013-04-15 05:52:00,
2013-04-15 02:02:00,46.0,27.0,30.21,SE,134,3.0,6.0,48,0.00,,,0.00,,2013-04-15 06:02:00,
2013-04-15 02:12:00,46.0,27.0,30.21,SE,134,3.0,6.0,48,0.00,,,0.00,,2013-04-15 06:12:00,
2013-04-15 02:23:00,45.0,27.0,30.22,SE,143,2.0,7.0,48,0.00,,,0.00,,2013-04-15 06:23:00,
2013-04-15 02:33:00,45.0,26.0,30.22,East,84,2.0,7.0,47,0.00,,,0.00,,2013-04-15 06:33:00,
2013-04-15 02:37:00,45.0,26.0,30.22,East,98,1.0,5.0,47,0.00,,,0.00,,2013-04-15 06:37:00,
2013-04-15 02:42:00,45.0,26.0,30.22,East,84,2.0,7.0,47,0.00,,,0.00,,2013-04-15 06:42:00,
2013-04-15 02:52:00,45.0,25.0,30.21,East,92,3.0,7.0,46,0.00,,,0.00,,2013-04-15 06:52:00,
2013-04-15 03:03:00,45.0,26.0,30.22,East,98,1.0,5.0,47,0.00,,,0.00,,2013-04-15 07:03:00,
2013-04-15 03:42:00,45.0,25.0,30.22,ESE,108,1.0,4.0,46,0.00,,,0.00,,2013-04-15 07:42:00,
2013-04-15 03:53:00,45.0,25.0,30.23,East,101,1.0,5.0,46,0.00,,,0.00,,2013-04-15 07:53:00,
2013-04-15 04:03:00,45.0,25.0,30.23,East,81,3.0,6.0,46,0.00,,,0.00,,2013-04-15 08:03:00,
2013-04-15 04:14:00,45.0,25.0,30.23,East,81,3.0,6.0,46,0.00,,,0.00,,2013-04-15 08:14:00,
2013-04-15 04:22:00,45.0,26.0,30.24,SE,128,0.0,1.0,47,0.00,,,0.00,,2013-04-15 08:22:00,
2013-04-15 04:34:00,44.0,25.0,30.25,ESE,114,0.0,3.0,46,0.00,,,0.00,,2013-04-15 08:34:00,
2013-04-15 04:43:00,44.0,25.0,30.25,ESE,114,0.0,3.0,46,0.00,,,0.00,,2013-04-15 08:43:00,
2013-04-15 04:52:00,44.0,25.0,30.26,East,99,1.0,3.0,46,0.00,,,0.00,,2013-04-15 08:52:00,
2013-04-15 05:03:00,45.0,25.0,30.27,SE,145,0.0,3.0,46,0.00,,,0.00,,2013-04-15 09:03:00,
2013-04-15 05:13:00,45.0,25.0,30.27,SE,145,0.0,3.0,46,0.00,,,0.00,,2013-04-15 09:13:00,
2013-04-15 05:23:00,44.0,25.0,30.27,ESE,116,0.0,2.0,46,0.00,,,0.00,,2013-04-15 09:23:00,
2013-04-15 05:33:00,44.0,25.0,30.27,SSE,154,0.0,1.0,46,0.00,,,0.00,,2013-04-15 09:33:00,
2013-04-15 05:43:00,44.0,25.0,30.27,SSE,154,0.0,1.0,46,0.00,,,0.00,,2013-04-15 09:43:00,
2013-04-15 05:53:00,44.0,25.0,30.28,SE,134,0.0,2.0,47,0.00,,,0.00,,2013-04-15 09:53:00,
2013-04-15 06:03:00,44.0,25.0,30.28,ESE,115,0.0,3.0,47,0.00,,,0.00,,2013-04-15 10:03:00,
2013-04-15 06:13:00,44.0,25.0,30.28,ESE,115,0.0,3.0,47,0.00,,,0.00,,2013-04-15 10:13:00,
2013-04-15 06:23:00,44.0,25.0,30.29,SE,127,1.0,2.0,47,0.00,,,0.00,,2013-04-15 10:23:00,
2013-04-15 06:33:00,45.0,26.0,30.29,SSE,150,1.0,4.0,47,0.00,,,0.00,,2013-04-15 10:33:00,
2013-04-15 06:42:00,45.0,26.0,30.29,SSE,150,1.0,4.0,47,0.00,,,0.00,,2013-04-15 10:42:00,
2013-04-15 06:52:00,45.0,26.0,30.29,ENE,77,0.0,3.0,47,0.00,,,0.00,,2013-04-15 10:52:00,
2013-04-15 07:03:00,45.0,27.0,30.30,ESE,121,0.0,4.0,48,0.00,,,0.00,,2013-04-15 11:03:00,
2013-04-15 07:13:00,45.0,27.0,30.30,ESE,121,0.0,4.0,48,0.00,,,0.00,,2013-04-15 11:13:00,
2013-04-15 07:23:00,45.0,26.0,30.30,East,98,1.0,4.0,47,0.00,,,0.00,,2013-04-15 11:23:00,
2013-04-15 07:33:00,45.0,26.0,30.30,South,187,0.0,4.0,47,0.00,,,0.00,,2013-04-15 11:33:00,
2013-04-15 07:43:00,45.0,26.0,30.30,South,187,0.0,4.0,47,0.00,,,0.00,,2013-04-15 11:43:00,
2013-04-15 07:53:00,45.0,27.0,30.31,SSE,163,0.0,2.0,48,0.00,,,0.00,,2013-04-15 11:53:00,
2013-04-15 08:05:00,45.0,25.0,30.32,NE,54,1.0,4.0,46,0.00,,,0.00,,2013-04-15 12:05:00,
2013-04-15 08:14:00,45.0,25.0,30.32,NE,54,1.0,4.0,46,0.00,,,0.00,,2013-04-15 12:14:00,
2013-04-15 08:23:00,46.0,26.0,30.33,SSW,201,1.0,4.0,46,0.00,,,0.00,,2013-04-15 12:23:00,
2013-04-15 08:34:00,46.0,26.0,30.33,SE,124,0.0,4.0,46,0.00,,,0.00,,2013-04-15 12:34:00,
2013-04-15 08:43:00,46.0,26.0,30.33,SE,124,0.0,4.0,46,0.00,,,0.00,,2013-04-15 12:43:00,
2013-04-15 08:53:00,47.0,26.0,30.34,SSE,154,0.0,8.0,44,0.00,,,0.00,,2013-04-15 12:53:00,
2013-04-15 09:05:00,48.0,27.0,30.35,SSE,165,1.0,4.0,43,0.00,,,0.00,,2013-04-15 13:05:00,
2013-04-15 09:13:00,48.0,27.0,30.35,SSE,165,1.0,4.0,43,0.00,,,0.00,,2013-04-15 13:13:00,
2013-04-15 09:23:00,48.0,27.0,30.35,SE,131,1.0,3.0,43,0.00,,,0.00,,2013-04-15 13:23:00,
2013-04-15 09:34:00,48.0,26.0,30.36,SSE,154,3.0,6.0,42,0.00,,,0.00,,2013-04-15 13:34:00,
2013-04-15 09:43:00,48.0,26.0,30.36,SSE,154,3.0,6.0,42,0.00,,,0.00,,2013-04-15 13:43:00,
2013-04-15 09:53:00,48.0,26.0,30.35,SSE,154,3.0,8.0,42,0.00,,,0.00,,2013-04-15 13:53:00,
2013-04-15 10:05:00,49.0,27.0,30.35,SSE,155,1.0,9.0,42,0.00,,,0.00,,2013-04-15 14:05:00,
2013-04-15 10:13:00,49.0,27.0,30.35,SSE,155,1.0,9.0,42,0.00,,,0.00,,2013-04-15 14:13:00,
2013-04-15 10:23:00,50.0,28.0,30.34,SE,140,3.0,7.0,42,0.00,,,0.00,,2013-04-15 14:23:00,
2013-04-15 10:34:00,50.0,27.0,30.34,SE,134,5.0,9.0,41,0.00,,,0.00,,2013-04-15 14:34:00,
2013-04-15 10:44:00,50.0,27.0,30.34,SE,134,5.0,9.0,41,0.00,,,0.00,,2013-04-15 14:44:00,
2013-04-15 10:54:00,50.0,27.0,30.34,SSE,165,4.0,9.0,41,0.00,,,0.00,,2013-04-15 14:54:00,
2013-04-15 11:04:00,51.0,28.0,30.34,South,170,4.0,8.0,40,0.00,,,0.00,,2013-04-15 15:04:00,
2013-04-15 11:13:00,51.0,28.0,30.34,South,170,4.0,8.0,40,0.00,,,0.00,,2013-04-15 15:13:00,
2013-04-15 11:24:00,51.0,28.0,30.33,SE,139,3.0,8.0,41,0.00,,,0.00,,2013-04-15 15:24:00,
2013-04-15 11:36:00,52.0,28.0,30.34,SE,131,3.0,8.0,39,0.00,,,0.00,,2013-04-15 15:36:00,
2013-04-15 11:44:00,52.0,28.0,30.34,SE,131,3.0,8.0,39,0.00,,,0.00,,2013-04-15 15:44:00,
2013-04-15 11:54:00,52.0,27.0,30.34,ESE,119,4.0,11.0,37,0.00,,,0.00,,2013-04-15 15:54:00,
2013-04-15 12:05:00,53.0,29.0,30.33,SSE,162,3.0,9.0,39,0.00,,,0.00,,2013-04-15 16:05:00,
2013-04-15 12:14:00,53.0,29.0,30.33,SSE,162,3.0,9.0,39,0.00,,,0.00,,2013-04-15 16:14:00,
2013-04-15 12:25:00,53.0,28.0,30.33,SSE,155,5.0,13.0,38,0.00,,,0.00,,2013-04-15 16:25:00,
2013-04-15 12:34:00,53.0,28.0,30.33,South,174,4.0,10.0,38,0.00,,,0.00,,2013-04-15 16:34:00,
2013-04-15 12:44:00,53.0,28.0,30.33,South,174,4.0,10.0,38,0.00,,,0.00,,2013-04-15 16:44:00,
2013-04-15 12:53:00,53.0,29.0,30.33,South,169,4.0,10.0,40,0.00,,,0.00,,2013-04-15 16:53:00,
2013-04-15 13:04:00,53.0,29.0,30.32,SSW,212,5.0,12.0,40,0.00,,,0.00,,2013-04-15 17:04:00,
2013-04-15 13:15:00,53.0,29.0,30.32,SSW,212,5.0,12.0,40,0.00,,,0.00,,2013-04-15 17:15:00,
2013-04-15 13:22:00,53.0,29.0,30.32,SSE,160,5.0,13.0,40,0.00,,,0.00,,2013-04-15 17:22:00,
2013-04-15 13:43:00,53.0,29.0,30.32,SSE,148,5.0,11.0,40,0.00,,,0.00,,2013-04-15 17:43:00,
2013-04-15 13:52:00,53.0,29.0,30.32,SE,127,8.0,14.0,40,0.00,,,0.00,,2013-04-15 17:52:00,
2013-04-15 14:04:00,54.0,31.0,30.31,SSE,150,3.0,12.0,41,0.00,,,0.00,,2013-04-15 18:04:00,
2013-04-15 14:13:00,54.0,31.0,30.31,SSE,150,3.0,12.0,41,0.00,,,0.00,,2013-04-15 18:13:00,
2013-04-15 14:24:00,54.0,31.0,30.31,South,169,6.0,14.0,42,0.00,,,0.00,,2013-04-15 18:24:00,
2013-04-15 14:33:00,54.0,30.0,30.31,SSE,165,5.0,11.0,40,0.00,,,0.00,,2013-04-15 18:33:00,
2013-04-15 14:42:00,54.0,30.0,30.31,SSE,165,5.0,11.0,40,0.00,,,0.00,,2013-04-15 18:42:00,
2013-04-15 14:52:00,54.0,32.0,30.31,SSE,159,6.0,12.0,43,0.00,,,0.00,,2013-04-15 18:52:00,
2013-04-15 15:02:00,54.0,32.0,30.32,South,184,5.0,13.0,43,0.00,,,0.00,,2013-04-15 19:02:00,
2013-04-15 15:12:00,54.0,32.0,30.32,South,184,5.0,13.0,43,0.00,,,0.00,,2013-04-15 19:12:00,
2013-04-15 15:22:00,53.0,32.0,30.32,SSE,166,3.0,15.0,44,0.00,,,0.00,,2013-04-15 19:22:00,
2013-04-15 15:38:00,54.0,31.0,30.31,SSE,154,6.0,10.0,42,0.00,,,0.00,,2013-04-15 19:38:00,
2013-04-15 15:56:00,54.0,31.0,30.31,SSE,154,6.0,10.0,42,0.00,,,0.00,,2013-04-15 19:56:00,
2013-04-15 16:02:00,53.0,29.0,30.31,SSE,153,3.0,12.0,40,0.00,,,0.00,,2013-04-15 20:02:00,
2013-04-15 16:12:00,53.0,29.0,30.31,SSE,153,3.0,12.0,40,0.00,,,0.00,,2013-04-15 20:12:00,
2013-04-15 16:22:00,53.0,29.0,30.31,SSE,153,3.0,12.0,40,0.00,,,0.00,,2013-04-15 20:22:00,
2013-04-15 16:32:00,53.0,31.0,30.30,SE,146,3.0,13.0,42,0.00,,,0.00,,2013-04-15 20:32:00,
2013-04-15 16:42:00,53.0,31.0,30.30,SE,146,3.0,13.0,42,0.00,,,0.00,,2013-04-15 20:42:00,
2013-04-15 16:52:00,53.0,31.0,30.29,SSE,155,5.0,10.0,43,0.00,,,0.00,,2013-04-15 20:52:00,
2013-04-15 17:02:00,52.0,32.0,30.29,SSW,195,5.0,13.0,47,0.00,,,0.00,,2013-04-15 21:02:00,
2013-04-15 17:12:00,52.0,32.0,30.29,SSW,195,5.0,13.0,47,0.00,,,0.00,,2013-04-15 21:12:00,
2013-04-15 17:22:00,52.0,33.0,30.29,SE,136,6.0,11.0,49,0.00,,,0.00,,2013-04-15 21:22:00,
2013-04-15 17:33:00,53.0,34.0,30.30,SSE,151,3.0,10.0,48,0.00,,,0.00,,2013-04-15 21:33:00,
2013-04-15 17:43:00,53.0,34.0,30.30,SSE,151,3.0,10.0,48,0.00,,,0.00,,2013-04-15 21:43:00,
2013-04-15 17:53:00,52.0,31.0,30.30,South,187,4.0,9.0,45,0.00,,,0.00,,2013-04-15 21:53:00,
2013-04-15 18:02:00,52.0,33.0,30.31,SSE,165,4.0,9.0,48,0.00,,,0.00,,2013-04-15 22:02:00,
2013-04-15 18:13:00,52.0,33.0,30.31,SSE,165,4.0,9.0,48,0.00,,,0.00,,2013-04-15 22:13:00,
2013-04-15 18:23:00,51.0,32.0,30.32,SSW,203,3.0,7.0,48,0.00,,,0.00,,2013-04-15 22:23:00,
2013-04-15 18:33:00,51.0,33.0,30.32,SE,128,3.0,5.0,50,0.00,,,0.00,,2013-04-15 22:33:00,
2013-04-15 18:42:00,51.0,33.0,30.32,SE,128,3.0,5.0,50,0.00,,,0.00,,2013-04-15 22:42:00,
2013-04-15 18:52:00,50.0,32.0,30.32,SSE,160,5.0,10.0,49,0.00,,,0.00,,2013-04-15 22:52:00,
2013-04-15 19:02:00,50.0,34.0,30.32,SSE,152,3.0,7.0,53,0.00,,,0.00,,2013-04-15 23:02:00,
2013-04-15 19:12:00,50.0,34.0,30.32,SSE,152,3.0,7.0,53,0.00,,,0.00,,2013-04-15 23:12:00,
2013-04-15 19:22:00,49.0,32.0,30.32,SSE,160,4.0,7.0,52,0.00,,,0.00,,2013-04-15 23:22:00,
2013-04-15 19:32:00,49.0,36.0,30.32,South,183,1.0,7.0,60,0.00,,,0.00,,2013-04-15 23:32:00,
2013-04-15 19:42:00,49.0,36.0,30.32,South,183,1.0,7.0,60,0.00,,,0.00,,2013-04-15 23:42:00,
2013-04-15 19:52:00,48.0,37.0,30.33,SSE,152,2.0,8.0,65,0.00,,,0.00,,2013-04-15 23:52:00,
2013-04-15 20:03:00,48.0,38.0,30.33,SSE,158,2.0,8.0,67,0.00,,,0.00,,2013-04-16 00:03:00,
2013-04-15 20:12:00,48.0,38.0,30.33,SSE,158,2.0,8.0,67,0.00,,,0.00,,2013-04-16 00:12:00,
2013-04-15 20:22:00,48.0,38.0,30.34,SSE,161,2.0,8.0,69,0.00,,,0.00,,2013-04-16 00:22:00,
2013-04-15 20:32:00,47.0,38.0,30.34,SSE,154,3.0,9.0,71,0.00,,,0.00,,2013-04-16 00:32:00,
2013-04-15 20:42:00,47.0,38.0,30.34,SSE,154,3.0,9.0,71,0.00,,,0.00,,2013-04-16 00:42:00,
2013-04-15 20:52:00,47.0,39.0,30.35,South,173,3.0,8.0,73,0.00,,,0.00,,2013-04-16 00:52:00,
2013-04-15 21:02:00,47.0,39.0,30.35,SE,124,3.0,8.0,74,0.00,,,0.00,,2013-04-16 01:02:00,
2013-04-15 21:12:00,47.0,39.0,30.35,SE,124,3.0,8.0,74,0.00,,,0.00,,2013-04-16 01:12:00,
2013-04-15 21:22:00,47.0,39.0,30.35,SSE,149,3.0,8.0,75,0.00,,,0.00,,2013-04-16 01:22:00,
2013-04-15 21:32:00,47.0,40.0,30.35,SSE,158,1.0,6.0,76,0.00,,,0.00,,2013-04-16 01:32:00,
2013-04-15 21:42:00,47.0,40.0,30.35,SSE,158,1.0,6.0,76,0.00,,,0.00,,2013-04-16 01:42:00,
2013-04-15 21:52:00,47.0,40.0,30.35,SSE,150,1.0,5.0,76,0.00,,,0.00,,2013-04-16 01:52:00,
2013-04-15 22:02:00,47.0,40.0,30.36,SSE,155,4.0,6.0,77,0.00,,,0.00,,2013-04-16 02:02:00,
2013-04-15 22:12:00,47.0,40.0,30.36,SSE,155,4.0,6.0,77,0.00,,,0.00,,2013-04-16 02:12:00,
2013-04-15 22:22:00,47.0,41.0,30.36,SSE,153,3.0,7.0,78,0.00,,,0.00,,2013-04-16 02:22:00,
2013-04-15 22:32:00,47.0,41.0,30.36,ESE,117,2.0,7.0,79,0.00,,,0.00,,2013-04-16 02:32:00,
2013-04-15 22:42:00,47.0,41.0,30.36,ESE,117,2.0,7.0,79,0.00,,,0.00,,2013-04-16 02:42:00,
2013-04-15 22:52:00,47.0,41.0,30.36,SSE,154,3.0,7.0,79,0.00,,,0.00,,2013-04-16 02:52:00,
2013-04-15 23:02:00,47.0,41.0,30.36,SSE,148,2.0,7.0,80,0.00,,,0.00,,2013-04-16 03:02:00,
2013-04-15 23:12:00,47.0,41.0,30.36,SSE,148,2.0,7.0,80,0.00,,,0.00,,2013-04-16 03:12:00,
2013-04-15 23:22:00,46.0,40.0,30.36,South,176,3.0,8.0,80,0.00,,,0.00,,2013-04-16 03:22:00,
2013-04-15 23:33:00,46.0,40.0,30.36,SSE,160,3.0,8.0,80,0.00,,,0.00,,2013-04-16 03:33:00,
2013-04-15 23:43:00,46.0,40.0,30.36,SSE,160,3.0,8.0,80,0.00,,,0.00,,2013-04-16 03:43:00,
2013-04-15 23:52:00,46.0,40.0,30.36,SSE,156,3.0,7.0,80,0.00,,,0.00,,2013-04-16 03:52:00,